TimeCST,TemperatureF,Dew PointF,Humidity,Sea Level PressureIn,VisibilityMPH,Wind Direction,Wind SpeedMPH,Gust SpeedMPH,PrecipitationIn,Events,Conditions,WindDirDegrees,DateUTC
12:55 AM,63.7,55.8,75,29.85,10.0,South,13.8,-,N/A,,Clear,180,2012-12-03 06:55:00
1:55 AM,63.0,56.5,79,29.84,10.0,South,19.6,-,N/A,,Clear,180,2012-12-03 07:55:00
2:55 AM,61.9,57.2,85,29.83,10.0,South,16.1,-,N/A,,Clear,180,2012-12-03 08:55:00
3:55 AM,60.3,57.4,90,29.82,10.0,South,13.8,-,N/A,,Clear,180,2012-12-03 09:55:00
4:55 AM,59.0,57.9,96,29.80,10.0,South,12.7,-,N/A,,Clear,190,2012-12-03 10:55:00
5:55 AM,57.0,56.7,99,29.82,10.0,South,8.1,-,N/A,,Clear,180,2012-12-03 11:55:00
6:55 AM,57.0,57.0,100,29.82,4.0,SSE,4.6,-,N/A,,Clear,150,2012-12-03 12:55:00
7:55 AM,57.9,57.9,100,29.85,6.0,South,3.5,-,N/A,,Clear,180,2012-12-03 13:55:00
8:55 AM,61.3,61.0,99,29.85,8.0,South,6.9,-,N/A,,Clear,170,2012-12-03 14:55:00
9:55 AM,66.2,60.4,82,29.85,10.0,SSW,16.1,23.0,N/A,,Clear,210,2012-12-03 15:55:00
10:55 AM,72.1,57.2,59,29.86,10.0,SSW,20.7,-,N/A,,Clear,210,2012-12-03 16:55:00
11:55 AM,76.3,46.9,35,29.81,10.0,SW,20.7,26.5,N/A,,Clear,220,2012-12-03 17:55:00
12:55 PM,78.8,40.5,25,29.79,10.0,WSW,12.7,23.0,N/A,,Clear,240,2012-12-03 18:55:00
1:55 PM,80.8,33.4,18,29.78,10.0,SW,16.1,20.7,N/A,,Clear,230,2012-12-03 19:55:00
2:55 PM,82.0,32.2,16,29.76,10.0,SW,10.4,-,N/A,,Clear,230,2012-12-03 20:55:00
3:55 PM,81.1,28.9,15,29.76,10.0,WSW,12.7,-,N/A,,Clear,250,2012-12-03 21:55:00
4:55 PM,78.4,29.3,17,29.79,10.0,NNW,17.3,-,N/A,,Clear,330,2012-12-03 22:55:00
5:04 PM,75.2,30.2,19,29.79,10.0,NNW,16.1,-,N/A,,Clear,340,2012-12-03 23:04:00
5:55 PM,68.7,28.8,23,29.83,10.0,North,11.5,-,N/A,,Clear,360,2012-12-03 23:55:00
6:55 PM,66.9,32.4,28,29.88,10.0,NNE,13.8,-,N/A,,Clear,20,2012-12-04 00:55:00
7:55 PM,63.7,33.3,32,29.93,10.0,North,20.7,-,N/A,,Clear,10,2012-12-04 01:55:00
8:55 PM,61.2,37.4,41,29.96,10.0,NNE,20.7,26.5,N/A,,Clear,20,2012-12-04 02:55:00
9:55 PM,59.4,38.8,47,30.00,10.0,North,16.1,-,N/A,,Clear,10,2012-12-04 03:55:00
10:55 PM,57.4,39.0,50,30.02,10.0,North,13.8,19.6,N/A,,Clear,360,2012-12-04 04:55:00
11:55 PM,56.7,39.4,52,30.03,10.0,North,15.0,-,N/A,,Clear,360,2012-12-04 05:55:00